Time,TemperatureF,DewpointF,PressureIn,WindDirection,WindDirectionDegrees,WindSpeedMPH,WindSpeedGustMPH,Humidity,HourlyPrecipIn,Conditions,Clouds,dailyrainin,SolarRadiationWatts/m^2,SoftwareType,DateUTC
2013-02-28 00:03:00,57.4,46.0,29.96,SW,224,6.0,-999.0,65,-99.99,,,0.03,0,weatherlink.com 1.10,2013-02-28 05:03:00,
2013-02-28 00:18:00,56.8,46.0,29.96,SW,224,2.0,-999.0,67,-99.99,,,0.03,0,weatherlink.com 1.10,2013-02-28 05:18:00,
2013-02-28 00:33:00,56.5,46.0,29.96,SW,224,2.0,-999.0,68,-99.99,,,0.03,0,weatherlink.com 1.10,2013-02-28 05:33:00,
2013-02-28 00:48:00,56.0,46.0,29.97,SW,224,2.0,-999.0,70,-99.99,,,0.03,0,weatherlink.com 1.10,2013-02-28 05:48:00,
2013-02-28 01:03:00,55.7,46.0,29.97,SW,224,3.0,-999.0,71,-99.99,,,0.03,0,weatherlink.com 1.10,2013-02-28 06:03:00,
2013-02-28 01:18:00,55.2,47.0,29.96,SW,224,2.0,-999.0,73,-99.99,,,0.03,0,weatherlink.com 1.10,2013-02-28 06:18:00,
2013-02-28 01:33:00,54.8,47.0,29.96,SW,224,5.0,-999.0,74,-99.99,,,0.03,0,weatherlink.com 1.10,2013-02-28 06:33:00,
2013-02-28 01:48:00,55.0,47.0,29.97,SW,224,4.0,-999.0,75,-99.99,,,0.03,0,weatherlink.com 1.10,2013-02-28 06:48:00,
2013-02-28 02:03:00,54.6,47.0,29.97,SW,224,2.0,-999.0,76,-99.99,,,0.03,0,weatherlink.com 1.10,2013-02-28 07:03:00,
2013-02-28 02:18:00,54.1,47.0,29.97,SW,224,4.0,-999.0,77,-99.99,,,0.03,0,weatherlink.com 1.10,2013-02-28 07:18:00,
2013-02-28 02:33:00,53.8,47.0,29.97,SW,224,4.0,-999.0,78,-99.99,,,0.03,0,weatherlink.com 1.10,2013-02-28 07:33:00,
2013-02-28 02:48:00,53.8,47.0,29.97,SW,224,4.0,-999.0,77,-99.99,,,0.03,0,weatherlink.com 1.10,2013-02-28 07:48:00,
2013-02-28 03:03:00,53.4,47.0,29.96,SW,224,4.0,-999.0,78,-99.99,,,0.03,0,weatherlink.com 1.10,2013-02-28 08:03:00,
2013-02-28 03:18:00,53.4,47.0,29.96,SW,224,3.0,-999.0,78,-99.99,,,0.03,0,weatherlink.com 1.10,2013-02-28 08:18:00,
2013-02-28 03:33:00,53.3,47.0,29.96,SW,224,3.0,-999.0,78,-99.99,,,0.03,0,weatherlink.com 1.10,2013-02-28 08:33:00,
2013-02-28 03:48:00,53.1,46.0,29.96,SW,224,2.0,-999.0,78,-99.99,,,0.03,0,weatherlink.com 1.10,2013-02-28 08:48:00,
2013-02-28 04:03:00,53.0,47.0,29.96,SW,225,3.0,-999.0,79,-99.99,,,0.03,0,weatherlink.com 1.10,2013-02-28 09:03:00,
2013-02-28 04:18:00,52.9,46.0,29.96,SW,225,4.0,-999.0,78,-99.99,,,0.03,0,weatherlink.com 1.10,2013-02-28 09:18:00,
2013-02-28 04:33:00,53.0,46.0,29.96,SW,225,3.0,-999.0,78,-99.99,,,0.03,0,weatherlink.com 1.10,2013-02-28 09:33:00,
2013-02-28 04:48:00,53.2,46.0,29.96,SW,225,4.0,-999.0,76,-99.99,,,0.03,0,weatherlink.com 1.10,2013-02-28 09:48:00,
2013-02-28 05:03:00,52.6,46.0,29.97,SW,225,5.0,-999.0,77,-99.99,,,0.03,0,weatherlink.com 1.10,2013-02-28 10:03:00,
2013-02-28 05:18:00,52.4,45.0,29.97,SW,225,4.0,-999.0,77,-99.99,,,0.03,0,weatherlink.com 1.10,2013-02-28 10:18:00,
2013-02-28 05:33:00,52.2,46.0,29.97,SW,225,2.0,-999.0,78,-99.99,,,0.03,0,weatherlink.com 1.10,2013-02-28 10:33:00,
2013-02-28 05:48:00,52.2,45.0,29.97,SW,225,5.0,-999.0,77,-99.99,,,0.03,0,weatherlink.com 1.10,2013-02-28 10:48:00,
2013-02-28 06:03:00,52.4,45.0,29.97,SW,225,2.0,-999.0,77,-99.99,,,0.03,0,weatherlink.com 1.10,2013-02-28 11:03:00,
2013-02-28 06:18:00,52.6,45.0,29.97,SW,225,5.0,-999.0,76,-99.99,,,0.03,0,weatherlink.com 1.10,2013-02-28 11:18:00,
2013-02-28 06:33:00,52.8,45.0,29.97,SW,225,0.0,-999.0,75,-99.99,,,0.03,0,weatherlink.com 1.10,2013-02-28 11:33:00,
2013-02-28 06:48:00,52.3,45.0,29.97,SW,225,3.0,-999.0,77,-99.99,,,0.03,0,weatherlink.com 1.10,2013-02-28 11:48:00,
2013-02-28 07:03:00,51.7,45.0,29.98,SW,225,0.0,-999.0,78,-99.99,,,0.03,12,weatherlink.com 1.10,2013-02-28 12:03:00,
2013-02-28 07:18:00,52.3,46.0,29.98,SW,225,4.0,-999.0,79,-99.99,,,0.03,26,weatherlink.com 1.10,2013-02-28 12:18:00,
2013-02-28 07:33:00,53.2,45.0,29.98,SW,225,6.0,-999.0,75,-99.99,,,0.03,69,weatherlink.com 1.10,2013-02-28 12:33:00,
2013-02-28 07:48:00,53.8,46.0,29.99,SW,233,5.0,-999.0,76,-99.99,,,0.03,125,weatherlink.com 1.10,2013-02-28 12:48:00,
2013-02-28 08:03:00,54.9,46.0,30.00,SW,232,6.0,-999.0,73,-99.99,,,0.03,188,weatherlink.com 1.10,2013-02-28 13:03:00,
2013-02-28 08:18:00,55.4,47.0,30.00,WSW,243,7.0,-999.0,73,-99.99,,,0.03,246,weatherlink.com 1.10,2013-02-28 13:18:00,
2013-02-28 08:33:00,55.7,47.0,30.00,WSW,238,4.0,-999.0,72,-99.99,,,0.03,301,weatherlink.com 1.10,2013-02-28 13:33:00,
2013-02-28 08:48:00,56.6,46.0,30.01,WSW,242,7.0,-999.0,68,-99.99,,,0.03,352,weatherlink.com 1.10,2013-02-28 13:48:00,
2013-02-28 09:03:00,57.7,47.0,30.01,WSW,246,9.0,-999.0,67,-99.99,,,0.03,404,weatherlink.com 1.10,2013-02-28 14:03:00,
2013-02-28 09:18:00,58.3,47.0,30.01,WSW,257,7.0,-999.0,66,-99.99,,,0.03,454,weatherlink.com 1.10,2013-02-28 14:18:00,
2013-02-28 09:33:00,58.6,43.0,30.01,WSW,241,3.0,-999.0,57,-99.99,,,0.03,508,weatherlink.com 1.10,2013-02-28 14:33:00,
2013-02-28 09:48:00,59.8,46.0,30.01,WSW,250,4.0,-999.0,61,-99.99,,,0.03,548,weatherlink.com 1.10,2013-02-28 14:48:00,
2013-02-28 10:03:00,60.4,44.0,30.01,WSW,252,4.0,-999.0,56,-99.99,,,0.03,594,weatherlink.com 1.10,2013-02-28 15:03:00,
2013-02-28 10:18:00,60.4,43.0,30.01,North,360,6.0,-999.0,54,-99.99,,,0.03,635,weatherlink.com 1.10,2013-02-28 15:18:00,
2013-02-28 10:33:00,61.4,44.0,30.00,WSW,254,7.0,-999.0,54,-99.99,,,0.03,671,weatherlink.com 1.10,2013-02-28 15:33:00,
2013-02-28 10:48:00,61.5,43.0,30.00,WSW,247,5.0,-999.0,51,-99.99,,,0.03,626,weatherlink.com 1.10,2013-02-28 15:48:00,
2013-02-28 11:03:00,62.9,45.0,29.99,WSW,238,4.0,-999.0,52,-99.99,,,0.03,728,weatherlink.com 1.10,2013-02-28 16:03:00,
2013-02-28 11:18:00,63.2,44.0,29.99,SW,227,6.0,-999.0,50,-99.99,,,0.03,754,weatherlink.com 1.10,2013-02-28 16:18:00,
2013-02-28 11:33:00,62.9,44.0,29.99,SW,223,6.0,-999.0,51,-99.99,,,0.03,636,weatherlink.com 1.10,2013-02-28 16:33:00,
2013-02-28 11:48:00,63.3,44.0,29.98,SSE,166,5.0,-999.0,50,-99.99,,,0.03,717,weatherlink.com 1.10,2013-02-28 16:48:00,
2013-02-28 12:03:00,63.3,45.0,29.97,SSW,208,5.0,-999.0,51,-99.99,,,0.00,809,weatherlink.com 1.10,2013-02-28 17:03:00,
2013-02-28 12:18:00,64.6,45.0,29.96,SSW,195,7.0,-999.0,50,-99.99,,,0.00,795,weatherlink.com 1.10,2013-02-28 17:18:00,
2013-02-28 12:33:00,64.9,46.0,29.95,SSW,213,3.0,-999.0,50,-99.99,,,0.00,823,weatherlink.com 1.10,2013-02-28 17:33:00,
2013-02-28 12:48:00,66.1,46.0,29.94,SW,228,9.0,-999.0,49,-99.99,,,0.00,696,weatherlink.com 1.10,2013-02-28 17:48:00,
2013-02-28 13:03:00,67.2,46.0,29.93,SSE,160,7.0,-999.0,46,-99.99,,,0.00,789,weatherlink.com 1.10,2013-02-28 18:03:00,
2013-02-28 13:33:00,67.3,45.0,29.91,South,182,2.0,-999.0,44,-99.99,,,0.00,708,weatherlink.com 1.10,2013-02-28 18:33:00,
2013-02-28 13:48:00,67.4,45.0,29.91,SW,221,8.0,-999.0,45,-99.99,,,0.00,687,weatherlink.com 1.10,2013-02-28 18:48:00,
2013-02-28 14:03:00,68.6,44.0,29.90,SSW,211,11.0,-999.0,42,-99.99,,,0.00,768,weatherlink.com 1.10,2013-02-28 19:03:00,
2013-02-28 14:18:00,68.3,45.0,29.90,SW,215,11.0,-999.0,43,-99.99,,,0.00,529,weatherlink.com 1.10,2013-02-28 19:18:00,
2013-02-28 14:33:00,68.5,45.0,29.90,WSW,240,7.0,-999.0,43,-99.99,,,0.01,708,weatherlink.com 1.10,2013-02-28 19:33:00,
2013-02-28 14:48:00,68.4,44.0,29.90,SSE,165,8.0,-999.0,41,-99.99,,,0.01,670,weatherlink.com 1.10,2013-02-28 19:48:00,
2013-02-28 15:03:00,68.7,43.0,29.90,North,360,14.0,-999.0,40,-99.99,,,0.01,633,weatherlink.com 1.10,2013-02-28 20:03:00,
2013-02-28 15:18:00,68.6,42.0,29.90,South,175,12.0,-999.0,38,-99.99,,,0.01,577,weatherlink.com 1.10,2013-02-28 20:18:00,
2013-02-28 15:33:00,67.8,43.0,29.89,South,173,10.0,-999.0,40,-99.99,,,0.01,563,weatherlink.com 1.10,2013-02-28 20:33:00,
2013-02-28 15:48:00,68.9,43.0,29.89,SW,236,10.0,-999.0,40,-99.99,,,0.01,526,weatherlink.com 1.10,2013-02-28 20:48:00,
2013-02-28 16:03:00,68.6,43.0,29.89,WSW,238,10.0,-999.0,40,-99.99,,,0.01,461,weatherlink.com 1.10,2013-02-28 21:03:00,
2013-02-28 16:18:00,69.0,44.0,29.89,SW,217,9.0,-999.0,40,-99.99,,,0.01,411,weatherlink.com 1.10,2013-02-28 21:18:00,
2013-02-28 16:33:00,69.3,43.0,29.89,North,360,11.0,-999.0,39,-99.99,,,0.01,353,weatherlink.com 1.10,2013-02-28 21:33:00,
2013-02-28 16:48:00,69.1,45.0,29.88,North,360,11.0,-999.0,42,-99.99,,,0.01,302,weatherlink.com 1.10,2013-02-28 21:48:00,
2013-02-28 17:03:00,68.6,43.0,29.88,SSW,205,4.0,-999.0,40,-99.99,,,0.01,250,weatherlink.com 1.10,2013-02-28 22:03:00,
2013-02-28 17:18:00,68.2,42.0,29.89,SW,224,14.0,-999.0,39,-99.99,,,0.01,181,weatherlink.com 1.10,2013-02-28 22:18:00,
2013-02-28 17:33:00,68.2,41.0,29.89,SSW,192,11.0,-999.0,38,-99.99,,,0.01,118,weatherlink.com 1.10,2013-02-28 22:33:00,
2013-02-28 17:48:00,68.0,42.0,29.90,SW,223,9.0,-999.0,39,-99.99,,,0.01,62,weatherlink.com 1.10,2013-02-28 22:48:00,
2013-02-28 18:03:00,67.8,41.0,29.90,SW,220,7.0,-999.0,38,-99.99,,,0.01,25,weatherlink.com 1.10,2013-02-28 23:03:00,
2013-02-28 18:18:00,67.1,42.0,29.91,North,360,7.0,-999.0,41,-99.99,,,0.01,7,weatherlink.com 1.10,2013-02-28 23:18:00,
2013-02-28 18:33:00,66.8,42.0,29.91,North,360,5.0,-999.0,40,-99.99,,,0.01,0,weatherlink.com 1.10,2013-02-28 23:33:00,
2013-02-28 18:48:00,66.3,41.0,29.91,North,360,5.0,-999.0,40,-99.99,,,0.01,0,weatherlink.com 1.10,2013-02-28 23:48:00,
2013-02-28 19:03:00,65.9,40.0,29.91,North,360,6.0,-999.0,39,-99.99,,,0.01,0,weatherlink.com 1.10,2013-03-01 00:03:00,
2013-02-28 19:18:00,65.6,40.0,29.92,North,360,2.0,-999.0,39,-99.99,,,0.01,0,weatherlink.com 1.10,2013-03-01 00:18:00,
2013-02-28 19:33:00,65.2,40.0,29.93,SW,232,6.0,-999.0,40,-99.99,,,0.02,0,weatherlink.com 1.10,2013-03-01 00:33:00,
2013-02-28 19:48:00,64.5,39.0,29.93,North,360,12.0,-999.0,39,-99.99,,,0.02,0,weatherlink.com 1.10,2013-03-01 00:48:00,
2013-02-28 20:03:00,64.4,40.0,29.93,SW,223,4.0,-999.0,41,-99.99,,,0.02,0,weatherlink.com 1.10,2013-03-01 01:03:00,
2013-02-28 20:18:00,63.9,39.0,29.94,SW,236,4.0,-999.0,40,-99.99,,,0.02,0,weatherlink.com 1.10,2013-03-01 01:18:00,
2013-02-28 20:33:00,63.5,39.0,29.94,SW,219,3.0,-999.0,40,-99.99,,,0.02,0,weatherlink.com 1.10,2013-03-01 01:33:00,
2013-02-28 20:48:00,62.9,37.0,29.94,North,360,6.0,-999.0,38,-99.99,,,0.02,0,weatherlink.com 1.10,2013-03-01 01:48:00,
2013-02-28 21:03:00,62.1,39.0,29.95,NNE,20,5.0,-999.0,43,-99.99,,,0.02,0,weatherlink.com 1.10,2013-03-01 02:03:00,
2013-02-28 21:18:00,62.1,38.0,29.95,SW,234,1.0,-999.0,41,-99.99,,,0.02,0,weatherlink.com 1.10,2013-03-01 02:18:00,
2013-02-28 21:34:00,61.5,36.0,29.95,SW,236,1.0,-999.0,39,-99.99,,,0.02,0,weatherlink.com 1.10,2013-03-01 02:34:00,
2013-02-28 21:48:00,61.1,37.0,29.95,SSW,203,4.0,-999.0,41,-99.99,,,0.02,0,weatherlink.com 1.10,2013-03-01 02:48:00,
2013-02-28 22:04:00,60.5,38.0,29.95,North,360,4.0,-999.0,43,-99.99,,,0.02,0,weatherlink.com 1.10,2013-03-01 03:04:00,
2013-02-28 22:18:00,60.1,37.0,29.96,SW,223,5.0,-999.0,42,-99.99,,,0.02,0,weatherlink.com 1.10,2013-03-01 03:18:00,
2013-02-28 22:33:00,59.8,36.0,29.96,SW,220,2.0,-999.0,41,-99.99,,,0.02,0,weatherlink.com 1.10,2013-03-01 03:33:00,
2013-02-28 22:48:00,59.5,38.0,29.96,WSW,241,4.0,-999.0,45,-99.99,,,0.02,0,weatherlink.com 1.10,2013-03-01 03:48:00,
2013-02-28 23:03:00,59.2,36.0,29.95,SSW,193,5.0,-999.0,43,-99.99,,,0.02,0,weatherlink.com 1.10,2013-03-01 04:03:00,
2013-02-28 23:18:00,59.1,36.0,29.96,SW,223,1.0,-999.0,43,-99.99,,,0.02,0,weatherlink.com 1.10,2013-03-01 04:18:00,
2013-02-28 23:33:00,58.7,37.0,29.95,SW,229,0.0,-999.0,45,-99.99,,,0.02,0,weatherlink.com 1.10,2013-03-01 04:33:00,
2013-02-28 23:48:00,58.4,37.0,29.96,SW,234,4.0,-999.0,45,-99.99,,,0.02,0,weatherlink.com 1.10,2013-03-01 04:48:00,